Date String (YYYY-MM-DD hh:mm:ss) UTC,Instrument flags,absolute air pressure of the measurement (hPa),sample flow rate (lpm),inlet stack bypass flow (lpm),air temperature of the measurement (°C),ambient temperature measured by the external sensor (°C),aerosol sample conditioner tube jacket temperature (°C),OPC LED temperature (°C),internal box temperature (°C),relative humidity of the measurement (%),span deviation,mass concentration of particles derived from Lorenz-Mie calculation of OPC scattering (μg/m³),mass concentration of particles derived from Lorenz-Mie calculation of OPC scattering (μg/m³),mass concentration of particles derived from Lorenz-Mie calculation of OPC scattering (μg/m³)
DateTimeUTC,F1_M11,P_M11,Q1_M11,Q2_M11,T1_M11,T2_M11,T3_M11,T4_M11,T5_M11,U1_M11,ZSPAN_M11,X0_M11,X2_M11,X1_M11
2023-11-02 01:00:00,SystemResetWarning,0831.3,4.99,000.00,026.5,025.2,000.0,035.0,027.9,10.3,0000.0,0003.69,0001.92,0001.62
2023-11-02 01:01:00,SystemResetWarning,0831.3,5.00,000.00,026.5,025.2,000.0,035.0,027.9,10.3,0000.0,0003.42,0001.77,0001.52
2023-11-02 01:02:00,SystemResetWarning,0831.3,5.01,000.00,026.5,025.3,000.0,035.0,027.9,10.4,0000.0,0003.06,0001.64,0001.42
2023-11-02 01:03:00,SystemResetWarning,0831.3,5.00,000.00,026.5,025.3,000.0,035.0,027.9,10.5,0000.0,0002.97,0001.59,0001.39
2023-11-02 01:04:00,SystemResetWarning,0831.3,4.98,000.00,026.5,025.3,000.0,035.0,027.9,10.3,0000.0,0002.85,0001.52,0001.33
2023-11-02 01:05:00,SystemResetWarning,0831.3,5.01,000.00,026.5,025.3,000.0,035.0,027.9,10.3,0000.0,0002.04,0001.46,0001.27
2023-11-02 01:06:00,SystemResetWarning,0831.3,4.99,000.00,026.5,025.3,000.0,035.0,027.9,10.4,0000.0,0002.02,0001.46,0001.27
2023-11-02 01:07:00,SystemResetWarning,0831.3,4.99,000.00,026.5,025.3,000.0,035.0,027.9,10.3,0000.0,0001.93,0001.41,0001.27
2023-11-02 01:08:00,SystemResetWarning,0831.3,4.99,000.00,026.5,025.3,000.0,035.0,027.9,10.3,0000.0,0001.70,0001.37,0001.25
2023-11-02 01:09:00,SystemResetWarning,0831.3,5.02,000.00,026.5,025.3,000.0,035.0,027.9,10.3,0000.0,0001.66,0001.35,0001.25
2023-11-02 01:10:00,SystemResetWarning,0831.3,5.00,000.00,026.5,025.3,000.0,034.9,027.9,10.3,0000.0,0001.66,0001.35,0001.25
2023-11-02 01:11:00,SystemResetWarning,0831.3,5.00,000.00,026.5,025.3,000.0,035.0,027.9,10.2,0000.0,0001.57,0001.29,0001.21
2023-11-02 01:12:00,SystemResetWarning,0831.3,5.00,000.00,026.5,025.3,000.0,035.0,027.9,10.3,0000.0,0001.54,0001.29,0001.20
2023-11-02 01:13:00,SystemResetWarning,0831.4,4.99,000.00,026.5,025.3,000.0,035.0,027.9,10.3,0000.0,0001.74,0001.28,0001.19
2023-11-02 01:14:00,SystemResetWarning,0831.3,4.99,000.00,026.5,025.3,000.0,034.9,027.9,10.5,0000.0,0001.92,0001.26,0001.18
2023-11-02 01:15:00,SystemResetWarning,0831.3,5.01,000.00,026.5,025.3,000.0,034.9,027.9,10.4,0000.0,0001.87,0001.25,0001.17
2023-11-02 01:16:00,SystemResetWarning,0831.3,5.01,000.00,026.5,025.3,000.0,034.9,027.9,10.3,0000.0,0001.80,0001.24,0001.17
2023-11-02 01:17:00,SystemResetWarning,0831.4,5.00,000.00,026.5,025.3,000.0,034.9,027.9,10.2,0000.0,0001.74,0001.21,0001.16
2023-11-02 01:18:00,SystemResetWarning,0831.4,4.99,000.00,026.5,025.3,000.0,034.9,027.9,10.1,0000.0,0001.72,0001.19,0001.15
2023-11-02 01:19:00,SystemResetWarning,0831.3,5.01,000.00,026.5,025.3,000.0,034.9,027.9,10.2,0000.0,0001.71,0001.19,0001.14
2023-11-02 01:20:00,SystemResetWarning,0831.4,4.99,000.00,026.5,025.3,000.0,034.9,027.9,10.4,0000.0,0001.71,0001.19,0001.15
2023-11-02 01:21:00,SystemResetWarning,0831.4,4.99,000.00,026.5,025.4,000.0,034.9,028.0,10.6,0000.0,0001.69,0001.18,0001.14
2023-11-02 01:22:00,SystemResetWarning,0831.4,5.01,000.00,026.5,025.4,000.0,034.9,028.0,10.9,0000.0,0001.74,0001.20,0001.15
2023-11-02 01:23:00,SystemResetWarning,0831.4,5.01,000.00,026.5,025.4,000.0,034.9,028.0,10.7,0000.0,0001.80,0001.22,0001.15
2023-11-02 01:24:00,SystemResetWarning,0831.4,4.99,000.00,026.5,025.5,000.0,034.9,028.0,10.7,0000.0,0001.67,0001.22,0001.15
2023-11-02 01:25:00,SystemResetWarning,0831.4,4.99,000.00,026.5,025.5,000.0,034.9,028.0,10.7,0000.0,0001.48,0001.23,0001.16
2023-11-02 01:26:00,SystemResetWarning,0831.4,5.01,000.00,026.5,025.5,000.0,034.9,028.0,10.6,0000.0,0001.59,0001.26,0001.16
2023-11-02 01:27:00,SystemResetWarning,0831.4,5.01,000.00,026.5,025.5,000.0,034.9,028.0,10.4,0000.0,0001.56,0001.25,0001.15
2023-11-02 01:28:00,SystemResetWarning,0831.5,4.98,000.00,026.6,025.5,000.0,034.9,028.0,10.6,0000.0,0001.59,0001.26,0001.15
2023-11-02 01:29:00,SystemResetWarning,0831.5,5.00,000.00,026.6,025.6,000.0,034.9,028.1,10.8,0000.0,0001.58,0001.27,0001.15
2023-11-02 01:30:00,SystemResetWarning,0831.4,5.01,000.00,026.6,025.6,000.0,035.0,028.1,10.7,0000.0,0001.63,0001.28,0001.15
2023-11-02 01:31:00,SystemResetWarning,0831.5,4.98,000.00,026.6,025.6,000.0,035.0,028.1,10.2,0000.0,0001.96,0001.32,0001.16
2023-11-02 01:32:00,SystemResetWarning,0831.5,4.99,000.00,026.6,025.6,000.0,035.0,028.1,10.1,0000.0,0002.03,0001.35,0001.16
2023-11-02 01:33:00,SystemResetWarning,0831.5,5.01,000.00,026.6,025.6,000.0,035.0,028.1,10.2,0000.0,0002.00,0001.34,0001.16
2023-11-02 01:34:00,SystemResetWarning,0831.5,5.00,000.00,026.6,025.6,000.0,035.0,028.1,10.3,0000.0,0001.98,0001.33,0001.16
2023-11-02 01:35:00,SystemResetWarning,0831.5,4.98,000.00,026.6,025.6,000.0,035.0,028.1,10.2,0000.0,0001.97,0001.32,0001.15
2023-11-02 01:36:00,SystemResetWarning,0831.5,5.01,000.00,026.6,025.7,000.0,035.0,028.1,10.2,0000.0,0001.88,0001.30,0001.14
2023-11-02 01:37:00,SystemResetWarning,0831.5,5.01,000.00,026.6,025.7,000.0,035.0,028.1,10.3,0000.0,0002.53,0001.27,0001.13
2023-11-02 01:38:00,SystemResetWarning,0831.5,4.99,000.00,026.6,025.7,000.0,035.0,028.1,10.3,0000.0,0003.12,0001.28,0001.14
2023-11-02 01:39:00,SystemResetWarning,0831.5,4.99,000.00,026.6,025.7,000.0,035.0,028.1,10.3,0000.0,0003.13,0001.28,0001.14
2023-11-02 01:40:00,SystemResetWarning,0831.6,5.00,000.00,026.7,025.7,000.0,035.0,028.1,10.4,0000.0,0003.14,0001.28,0001.14
2023-11-02 01:41:00,SystemResetWarning,0831.6,5.01,000.00,026.7,025.7,000.0,035.0,028.2,10.4,0000.0,0003.14,0001.28,0001.14
2023-11-02 01:42:00,SystemResetWarning,0831.6,5.00,000.00,026.7,025.7,000.0,035.0,028.1,10.5,0000.0,0002.86,0001.24,0001.13
2023-11-02 01:43:00,SystemResetWarning,0831.6,5.01,000.00,026.7,025.7,000.0,035.0,028.2,10.7,0000.0,0002.79,0001.22,0001.12
2023-11-02 01:44:00,SystemResetWarning,0831.6,4.99,000.00,026.7,025.7,000.0,035.0,028.2,10.6,0000.0,0002.78,0001.21,0001.11
2023-11-02 01:45:00,SystemResetWarning,0831.6,4.99,000.00,026.7,025.7,000.0,035.0,028.1,10.4,0000.0,0002.76,0001.19,0001.10
2023-11-02 01:46:00,SystemResetWarning,0831.6,4.99,000.00,026.7,025.7,000.0,035.0,028.1,10.4,0000.0,0002.75,0001.19,0001.10
2023-11-02 01:47:00,SystemResetWarning,0831.6,5.01,000.00,026.7,025.8,000.0,035.1,028.1,10.6,0000.0,0002.75,0001.19,0001.10
2023-11-02 01:48:00,SystemResetWarning,0831.5,5.00,000.00,026.7,025.8,000.0,035.1,028.2,10.7,0000.0,0002.37,0001.21,0001.11
2023-11-02 01:49:00,SystemResetWarning,0831.6,4.99,000.00,026.7,025.8,000.0,035.1,028.2,10.3,0000.0,0001.54,0001.23,0001.11
2023-11-02 01:50:00,SystemResetWarning,0831.6,5.00,000.00,026.7,025.8,000.0,035.1,028.2,10.5,0000.0,0001.51,0001.22,0001.10
2023-11-02 01:51:00,SystemResetWarning,0831.6,5.00,000.00,026.7,025.8,000.0,035.1,028.1,10.6,0000.0,0001.52,0001.22,0001.10
2023-11-02 01:52:00,SystemResetWarning,0831.6,5.00,000.00,026.7,025.8,000.0,035.1,028.2,10.5,0000.0,0001.56,0001.24,0001.10
2023-11-02 01:53:00,SystemResetWarning,0831.6,5.00,000.00,026.7,025.8,000.0,035.1,028.2,10.3,0000.0,0001.57,0001.25,0001.10
2023-11-02 01:54:00,SystemResetWarning,0831.6,5.01,000.00,026.7,025.8,000.0,035.1,028.1,9.9,0000.0,0001.64,0001.26,0001.10
2023-11-02 01:55:00,SystemResetWarning,0831.6,5.00,000.00,026.7,025.8,000.0,035.1,028.2,10.0,0000.0,0001.74,0001.27,0001.10
2023-11-02 01:56:00,SystemResetWarning,0831.6,4.99,000.00,026.7,025.7,000.0,035.1,028.2,9.9,0000.0,0001.81,0001.30,0001.11
2023-11-02 01:57:00,SystemResetWarning,0831.5,5.00,000.00,026.7,025.7,000.0,035.1,028.2,9.8,0000.0,0001.82,0001.29,0001.10
2023-11-02 01:58:00,SystemResetWarning,0831.6,5.01,000.00,026.7,025.7,000.0,035.1,028.2,9.7,0000.0,0001.82,0001.29,0001.10
2023-11-02 01:59:00,SystemResetWarning,0831.5,5.00,000.00,026.7,025.7,000.0,035.1,028.2,9.6,0000.0,0001.77,0001.26,0001.09
